| time (UTC) | temp F | wind direction | speed MPH | gust MPH | rain 1hr in | rain 24hr in | rain mn in | humidity % | barometer mb |
| 20260903104005 | 58 | 338 | 0.0 | 0.0 | 0.00 | 0.00 | 0.00 | 75 | 822.0 |
| 20260903103004 | 58 | 338 | 0.0 | 0.0 | 0.00 | 0.00 | 0.00 | 75 | 822.0 |
| 20260903101003 | 59 | 338 | 0.0 | 0.0 | 0.00 | 0.00 | 0.00 | 74 | 822.0 |
| 20260903100004 | 59 | 338 | 0.0 | 0.0 | 0.00 | 0.00 | 0.00 | 75 | 822.0 |
| 20260903095004 | 59 | 338 | 0.0 | 0.0 | 0.00 | 0.00 | 0.00 | 74 | 822.0 |
| 20260903094004 | 60 | 338 | 0.0 | 0.0 | 0.00 | 0.00 | 0.00 | 74 | 822.0 |
| 20260903093004 | 60 | 338 | 0.0 | 0.0 | 0.00 | 0.00 | 0.00 | 74 | 822.0 |
| 20260903092003 | 60 | 338 | 0.0 | 0.0 | 0.00 | 0.00 | 0.00 | 73 | 822.0 |
| 20260903091004 | 60 | 338 | 0.0 | 0.0 | 0.00 | 0.00 | 0.00 | 72 | 822.0 |
| 20260903084004 | 60 | 30 | 0.0 | 0.0 | 0.00 | 0.00 | 0.00 | 70 | 822.0 |
| 20260903082004 | 60 | 321 | 0.0 | 0.0 | 0.00 | 0.00 | 0.00 | 69 | 822.0 |
| 20260903081004 | 60 | 17 | 0.0 | 0.0 | 0.00 | 0.00 | 0.00 | 69 | 822.0 |
| 20260903080004 | 60 | 5 | 0.0 | 0.0 | 0.00 | 0.00 | 0.00 | 69 | 822.0 |
| 20260903074004 | 60 | 259 | 0.0 | 0.0 | 0.00 | 0.00 | 0.00 | 69 | 822.0 |
| 20260903072003 | 61 | 258 | 0.0 | 0.0 | 0.00 | 0.00 | 0.00 | 70 | 822.0 |
| 20260903070004 | 61 | 260 | 0.0 | 0.0 | 0.00 | 0.00 | 0.00 | 73 | 822.0 |
| 20260903063004 | 61 | 260 | 0.0 | 0.0 | 0.00 | 0.00 | 0.00 | 76 | 822.0 |
| 20260903062004 | 61 | 260 | 0.0 | 0.0 | 0.00 | 0.00 | 0.00 | 77 | 822.0 |
| 20260903061004 | 61 | 260 | 0.0 | 0.0 | 0.00 | 0.00 | 0.00 | 76 | 822.0 |
| 20260903055004 | 62 | 260 | 0.0 | 0.0 | 0.00 | 0.00 | 0.00 | 76 | 822.0 |
| 20260903053003 | 63 | 260 | 0.0 | 0.0 | 0.00 | 0.00 | 0.00 | 76 | 822.0 |
| 20260903052004 | 63 | 257 | 0.0 | 0.0 | 0.00 | 0.00 | 0.00 | 76 | 822.0 |
| 20260903050004 | 64 | 267 | 0.0 | 0.0 | 0.00 | 0.00 | 0.00 | 76 | 884.1 |
| 20260903043004 | 65 | 280 | 0.0 | 0.0 | 0.00 | 0.00 | 0.00 | 76 | 884.1 |
| 20260903042004 | 65 | 281 | 0.0 | 0.0 | 0.00 | 0.00 | 0.00 | 75 | 884.1 |
| 20260903041003 | 66 | 278 | 0.0 | 0.0 | 0.00 | 0.00 | 0.00 | 75 | 884.1 |
| 20260903040004 | 66 | 276 | 0.0 | 0.0 | 0.00 | 0.00 | 0.00 | 74 | 884.1 |
| 20260903035004 | 66 | 276 | 0.0 | 0.0 | 0.00 | 0.00 | 0.00 | 73 | 884.1 |
| 20260903034004 | 67 | 274 | 0.0 | 0.0 | 0.00 | 0.00 | 0.00 | 72 | 884.1 |
| 20260903033004 | 67 | 268 | 0.0 | 0.0 | 0.00 | 0.00 | 0.00 | 71 | 884.1 |
| 20260903032004 | 68 | 261 | 0.0 | 0.0 | 0.00 | 0.00 | 0.00 | 69 | 884.1 |
| 20260903031004 | 68 | 267 | 0.0 | 0.0 | 0.00 | 0.00 | 0.00 | 68 | 865.8 |
| 20260903025016 | 70 | 276 | 0.0 | 5.0 | 0.00 | 0.00 | 0.00 | 66 | 877.4 |
| 20260903024003 | 70 | 264 | 2.0 | 7.0 | 0.00 | 0.00 | 0.00 | 65 | 877.4 |
| 20260903022004 | 72 | 277 | 1.0 | 7.0 | 0.00 | 0.00 | 0.00 | 62 | 877.4 |
| 20260903021003 | 73 | 282 | 0.0 | 7.0 | 0.00 | 0.00 | 0.00 | 60 | 877.4 |
| 20260903015004 | 73 | 304 | 0.0 | 7.0 | 0.00 | 0.00 | 0.00 | 54 | 877.4 |
| 20260903010004 | 76 | 348 | 2.0 | 12.0 | 0.00 | 0.00 | 0.00 | 47 | 887.4 |
| 20260903005004 | 77 | 343 | 2.0 | 12.0 | 0.00 | 0.00 | 0.00 | 46 | 887.4 |
| 20260903004003 | 78 | 0 | 3.0 | 13.0 | 0.00 | 0.00 | 0.00 | 46 | 887.4 |
| 20260903002005 | 79 | 319 | 3.0 | 13.0 | 0.00 | 0.00 | 0.00 | 45 | 887.4 |
| 20260903000004 | 81 | 317 | 1.0 | 10.0 | 0.00 | 0.00 | 0.00 | 43 | 887.4 |
| 20260902235003 | 81 | 9 | 4.0 | 13.0 | 0.00 | 0.00 | 0.00 | 42 | 887.4 |
| 20260902232003 | 83 | 306 | 6.0 | 16.0 | 0.00 | 0.00 | 0.00 | 45 | 887.4 |
| 20260902230003 | 83 | 282 | 6.0 | 20.0 | 0.00 | 0.00 | 0.00 | 44 | 887.4 |
| 20260902225004 | 83 | 282 | 9.0 | 20.0 | 0.00 | 0.00 | 0.00 | 43 | 887.4 |
| 20260902224004 | 84 | 288 | 9.0 | 18.0 | 0.00 | 0.00 | 0.00 | 42 | 805.6 |
| 20260902223003 | 84 | 277 | 8.0 | 17.0 | 0.00 | 0.00 | 0.00 | 41 | 805.6 |
| 20260902222004 | 84 | 285 | 7.0 | 20.0 | 0.00 | 0.00 | 0.00 | 41 | 805.6 |
| 20260902215004 | 84 | 280 | 10.0 | 20.0 | 0.00 | 0.00 | 0.00 | 40 | 805.6 |
| 20260902214004 | 84 | 285 | 6.0 | 17.0 | 0.00 | 0.00 | 0.00 | 40 | 805.6 |
| 20260902212004 | 85 | 258 | 9.0 | 18.0 | 0.00 | 0.00 | 0.00 | 38 | 805.6 |
| 20260902211004 | 84 | 263 | 6.0 | 17.0 | 0.00 | 0.00 | 0.00 | 39 | 805.6 |
| 20260902203004 | 83 | 299 | 6.0 | 16.0 | 0.00 | 0.00 | 0.00 | 40 | 805.6 |
| 20260902202004 | 82 | 266 | 3.0 | 13.0 | 0.00 | 0.00 | 0.00 | 41 | 805.6 |
| 20260902201004 | 82 | 274 | 2.0 | 9.0 | 0.00 | 0.00 | 0.00 | 39 | 805.6 |
| 20260902195003 | 81 | 288 | 3.0 | 12.0 | 0.00 | 0.00 | 0.00 | 41 | 805.6 |
| 20260902194004 | 81 | 302 | 2.0 | 8.0 | 0.00 | 0.00 | 0.00 | 40 | 805.6 |
| 20260902134004 | 47 | 232 | 0.0 | 0.0 | 0.00 | 0.00 | 0.00 | 72 | 805.6 |
| 20260902133004 | 47 | 232 | 0.0 | 0.0 | 0.00 | 0.00 | 0.00 | 73 | 805.6 |
| 20260902132004 | 47 | 232 | 0.0 | 0.0 | 0.00 | 0.00 | 0.00 | 73 | 805.6 |
| 20260902130004 | 48 | 231 | 0.0 | 0.0 | 0.00 | 0.00 | 0.00 | 73 | 805.6 |
| 20260902125003 | 48 | 231 | 0.0 | 0.0 | 0.00 | 0.00 | 0.00 | 73 | 805.6 |
| 20260902124004 | 48 | 231 | 0.0 | 0.0 | 0.00 | 0.00 | 0.00 | 73 | 805.6 |
| 20260902123004 | 48 | 231 | 0.0 | 0.0 | 0.00 | 0.00 | 0.00 | 73 | 805.6 |
| 20260902122004 | 49 | 230 | 0.0 | 0.0 | 0.00 | 0.00 | 0.00 | 73 | 805.6 |